QPF
0.03 0.04 0.04 0.05 0.08 0.08 0.07 0.07 0.07 0.07 0.08 0.08 0.09 0.10 0.10 0.11 0.13 0.12 0.10 0.06 0.06 0.06 0.07 0.10 0.12 0.13 0.12 0.12 0.13 0.14 0.14 0.13 0.12 0.12 0.12 0.09 0.07 0.04 0.02 0.02 0.01 0.01 0.01
0.04 0.05 0.04 0.07 0.08 0.10 0.09 0.08 0.07 0.07 0.07 0.07 0.08 0.09 0.08 0.10 0.13 0.11 0.12 0.09 0.07 0.07 0.07 0.08 0.10 0.11 0.11 0.11 0.10 0.09 0.10 0.10 0.11 0.13 0.14 0.14 0.11 0.08 0.03 0.02 0.02 0.02 0.02
0.05 0.06 0.05 0.08 0.10 0.11 0.12 0.09 0.08 0.09 0.07 0.07 0.09 0.11 0.09 0.09 0.15 0.13 0.10 0.11 0.11 0.08 0.07 0.07 0.08 0.11 0.12 0.12 0.12 0.09 0.06 0.05 0.07 0.09 0.12 0.14 0.12 0.10 0.06 0.03 0.02 0.02 0.02
0.07 0.08 0.08 0.10 0.13 0.12 0.13 0.10 0.09 0.09 0.09 0.07 0.09 0.13 0.13 0.09 0.12 0.12 0.08 0.07 0.10 0.11 0.08 0.07 0.07 0.08 0.10 0.12 0.13 0.12 0.09 0.06 0.05 0.06 0.07 0.09 0.09 0.09 0.07 0.04 0.03 0.02 0.02
0.11 0.11 0.11 0.10 0.11 0.10 0.09 0.08 0.09 0.09 0.09 0.08 0.08 0.08 0.11 0.10 0.09 0.11 0.10 0.06 0.07 0.08 0.09 0.08 0.07 0.07 0.08 0.10 0.12 0.14 0.14 0.12 0.07 0.05 0.05 0.06 0.07 0.07 0.07 0.05 0.03 0.03 0.03
0.14 0.13 0.11 0.09 0.09 0.09 0.09 0.09 0.09 0.08 0.08 0.08 0.08 0.06 0.07 0.08 0.09 0.10 0.11 0.09 0.07 0.06 0.05 0.05 0.04 0.04 0.05 0.08 0.12 0.14 0.14 0.15 0.13 0.09 0.06 0.05 0.05 0.06 0.06 0.06 0.04 0.03 0.02
0.09 0.14 0.10 0.09 0.08 0.08 0.09 0.10 0.09 0.08 0.07 0.09 0.09 0.06 0.05 0.06 0.07 0.08 0.09 0.11 0.10 0.07 0.06 0.05 0.04 0.03 0.03 0.04 0.08 0.12 0.13 0.14 0.14 0.12 0.09 0.07 0.05 0.05 0.05 0.06 0.07 0.06 0.04
0.05 0.11 0.11 0.08 0.06 0.06 0.07 0.08 0.09 0.07 0.06 0.07 0.07 0.06 0.05 0.06 0.06 0.06 0.05 0.06 0.07 0.08 0.07 0.06 0.05 0.04 0.03 0.04 0.06 0.08 0.10 0.10 0.10 0.10 0.10 0.09 0.07 0.06 0.06 0.06 0.08 0.09 0.07
0.04 0.05 0.08 0.08 0.05 0.03 0.04 0.06 0.08 0.07 0.06 0.06 0.06 0.05 0.05 0.05 0.06 0.05 0.05 0.04 0.03 0.04 0.04 0.04 0.05 0.06 0.06 0.07 0.10 0.11 0.11 0.11 0.10 0.08 0.08 0.09 0.08 0.07 0.06 0.06 0.07 0.09 0.09
0.04 0.03 0.04 0.07 0.06 0.03 0.02 0.04 0.06 0.07 0.07 0.06 0.08 0.07 0.06 0.05 0.05 0.06 0.06 0.06 0.04 0.03 0.02 0.02 0.03 0.04 0.06 0.07 0.09 0.11 0.13 0.13 0.13 0.11 0.09 0.08 0.08 0.07 0.07 0.07 0.06 0.07 0.09
0.05 0.04 0.04 0.06 0.06 0.05 0.03 0.02 0.04 0.07 0.08 0.08 0.09 0.08 0.07 0.06 0.05 0.05 0.06 0.06 0.06 0.05 0.04 0.03 0.02 0.04 0.06 0.07 0.07 0.08 0.10 0.12 0.12 0.12 0.10 0.08 0.07 0.07 0.07 0.06 0.06 0.06 0.07
0.05 0.05 0.04 0.04 0.06 0.06 0.05 0.04 0.04 0.05 0.08 0.10 0.11 0.10 0.08 0.06 0.05 0.04 0.04 0.05 0.05 0.05 0.05 0.04 0.03 0.03 0.04 0.05 0.07 0.08 0.09 0.10 0.11 0.11 0.10 0.08 0.07 0.07 0.07 0.06 0.06 0.06 0.05
0.05 0.05 0.04 0.03 0.04 0.05 0.06 0.06 0.06 0.06 0.07 0.09 0.12 0.12 0.10 0.07 0.04 0.03 0.03 0.04 0.04 0.04 0.05 0.04 0.04 0.04 0.04 0.05 0.06 0.06 0.08 0.08 0.08 0.08 0.08 0.07 0.06 0.06 0.06 0.06 0.06 0.06 0.06
0.04 0.05 0.05 0.03 0.03 0.04 0.04 0.06 0.06 0.06 0.06 0.06 0.08 0.10 0.10 0.08 0.05 0.04 0.03 0.03 0.03 0.04 0.04 0.04 0.04 0.05 0.05 0.05 0.06 0.06 0.06 0.07 0.07 0.07 0.06 0.05 0.05 0.05 0.05 0.06 0.06 0.07 0.07
0.03 0.05 0.06 0.04 0.04 0.04 0.05 0.05 0.05 0.05 0.06 0.06 0.06 0.07 0.07 0.06 0.05 0.04 0.04 0.03 0.03 0.03 0.03 0.04 0.04 0.04 0.05 0.06 0.06 0.06 0.06 0.05 0.07 0.06 0.05 0.04 0.05 0.04 0.04 0.04 0.05 0.06 0.06
0.04 0.05 0.05 0.05 0.05 0.06 0.07 0.07 0.06 0.06 0.06 0.06 0.06 0.05 0.06 0.05 0.04 0.04 0.04 0.04 0.04 0.04 0.04 0.03 0.04 0.04 0.05 0.06 0.06 0.06 0.06 0.05 0.07 0.07 0.05 0.04 0.04 0.03 0.03 0.03 0.04 0.04 0.05
0.03 0.04 0.06 0.06 0.06 0.07 0.09 0.08 0.06 0.07 0.07 0.05 0.04 0.04 0.05 0.05 0.05 0.04 0.04 0.05 0.05 0.04 0.04 0.04 0.04 0.05 0.06 0.07 0.07 0.07 0.07 0.06 0.07 0.07 0.06 0.05 0.05 0.03 0.03 0.03 0.03 0.04 0.05
0.02 0.03 0.05 0.06 0.06 0.07 0.09 0.09 0.08 0.08 0.06 0.05 0.04 0.04 0.04 0.04 0.04 0.04 0.04 0.06 0.05 0.05 0.06 0.06 0.05 0.05 0.06 0.07 0.07 0.07 0.07 0.07 0.06 0.06 0.06 0.06 0.06 0.04 0.03 0.03 0.03 0.03 0.05
0.03 0.03 0.04 0.05 0.05 0.06 0.08 0.09 0.08 0.08 0.06 0.05 0.04 0.04 0.04 0.03 0.03 0.04 0.04 0.05 0.06 0.06 0.05 0.05 0.06 0.06 0.06 0.07 0.07 0.08 0.07 0.07 0.07 0.06 0.06 0.06 0.06 0.05 0.05 0.04 0.04 0.04 0.04
0.03 0.03 0.02 0.03 0.04 0.05 0.06 0.07 0.07 0.07 0.05 0.04 0.04 0.04 0.04 0.03 0.03 0.03 0.03 0.04 0.06 0.07 0.06 0.05 0.05 0.05 0.06 0.08 0.08 0.09 0.08 0.07 0.07 0.07 0.06 0.07 0.06 0.06 0.05 0.04 0.04 0.04 0.04
0.02 0.02 0.02 0.02 0.03 0.04 0.05 0.05 0.06 0.06 0.05 0.03 0.03 0.03 0.03 0.03 0.03 0.03 0.03 0.04 0.04 0.06 0.07 0.06 0.06 0.06 0.06 0.08 0.09 0.09 0.08 0.08 0.08 0.08 0.07 0.07 0.07 0.07 0.05 0.04 0.04 0.04 0.05
0.02 0.02 0.02 0.02 0.03 0.04 0.04 0.05 0.05 0.05 0.05 0.03 0.02 0.03 0.03 0.03 0.03 0.03 0.03 0.03 0.04 0.04 0.05 0.05 0.05 0.05 0.05 0.07 0.08 0.08 0.07 0.08 0.08 0.08 0.08 0.07 0.08 0.07 0.06 0.05 0.05 0.04 0.05
0.02 0.02 0.02 0.02 0.03 0.04 0.03 0.04 0.04 0.04 0.04 0.04 0.03 0.03 0.03 0.03 0.03 0.03 0.03 0.03 0.03 0.03 0.03 0.03 0.04 0.04 0.04 0.06 0.09 0.07 0.07 0.08 0.08 0.09 0.09 0.08 0.08 0.07 0.06 0.06 0.05 0.05 0.04
0.02 0.02 0.03 0.03 0.04 0.04 0.04 0.04 0.04 0.04 0.04 0.05 0.05 0.03 0.03 0.03 0.03 0.04 0.03 0.03 0.03 0.03 0.03 0.03 0.04 0.03 0.03 0.05 0.08 0.08 0.07 0.07 0.07 0.08 0.08 0.08 0.07 0.07 0.06 0.06 0.05 0.05 0.05
0.02 0.02 0.02 0.03 0.04 0.04 0.04 0.04 0.04 0.04 0.05 0.04 0.04 0.05 0.04 0.04 0.04 0.04 0.03 0.03 0.03 0.03 0.03 0.03 0.03 0.03 0.04 0.04 0.05 0.06 0.06 0.06 0.06 0.07 0.07 0.07 0.07 0.07 0.06 0.05 0.05 0.05 0.05
0.02 0.02 0.02 0.03 0.04 0.04 0.04 0.04 0.04 0.04 0.04 0.04 0.03 0.03 0.04 0.04 0.03 0.03 0.03 0.03 0.03 0.02 0.02 0.02 0.03 0.03 0.03 0.03 0.03 0.04 0.05 0.05 0.06 0.07 0.07 0.07 0.08 0.07 0.06 0.05 0.05 0.04 0.04
MSLP
1015.45 1015.77 1015.98 1016.06 1016.02 1015.88 1015.66 1015.37 1015.03 1014.66 1014.27 1013.87 1013.46 1013.07 1012.71 1012.38 1012.12 1011.91 1011.75 1011.63 1011.55 1011.49 1011.43 1011.39 1011.35 1011.33 1011.33 1011.37 1011.43 1011.51 1011.58 1011.64 1011.66 1011.62 1011.54 1011.42 1011.29 1011.18 1011.11 1011.11 1011.18 1011.33 1011.53
1015.14 1015.53 1015.82 1015.98 1016.02 1015.94 1015.78 1015.54 1015.24 1014.90 1014.52 1014.12 1013.71 1013.29 1012.88 1012.50 1012.17 1011.89 1011.66 1011.48 1011.33 1011.22 1011.11 1011.03 1010.96 1010.90 1010.87 1010.87 1010.90 1010.94 1010.98 1011.01 1011.00 1010.95 1010.86 1010.73 1010.60 1010.47 1010.39 1010.37 1010.43 1010.57 1010.77
1014.73 1015.19 1015.55 1015.78 1015.90 1015.89 1015.78 1015.60 1015.35 1015.05 1014.71 1014.33 1013.92 1013.50 1013.07 1012.65 1012.27 1011.92 1011.62 1011.37 1011.16 1010.98 1010.82 1010.68 1010.55 1010.45 1010.37 1010.32 1010.29 1010.29 1010.30 1010.31 1010.29 1010.24 1010.15 1010.04 1009.91 1009.80 1009.72 1009.69 1009.74 1009.86 1010.05
1014.22 1014.75 1015.19 1015.51 1015.69 1015.75 1015.71 1015.58 1015.38 1015.13 1014.83 1014.49 1014.11 1013.69 1013.26 1012.82 1012.40 1012.00 1011.64 1011.32 1011.03 1010.78 1010.55 1010.34 1010.15 1009.97 1009.82 1009.71 1009.62 1009.57 1009.54 1009.53 1009.51 1009.48 1009.42 1009.35 1009.26 1009.17 1009.11 1009.09 1009.13 1009.24 1009.41
1013.65 1014.27 1014.80 1015.20 1015.46 1015.58 1015.60 1015.52 1015.37 1015.17 1014.91 1014.61 1014.26 1013.87 1013.45 1013.01 1012.56 1012.12 1011.71 1011.33 1010.97 1010.64 1010.33 1010.04 1009.76 1009.50 1009.26 1009.06 1008.91 1008.80 1008.73 1008.70 1008.68 1008.68 1008.67 1008.65 1008.61 1008.58 1008.56 1008.56 1008.60 1008.70 1008.85
1013.06 1013.78 1014.40 1014.88 1015.22 1015.41 1015.48 1015.45 1015.35 1015.19 1014.97 1014.71 1014.40 1014.03 1013.63 1013.19 1012.73 1012.28 1011.83 1011.39 1010.98 1010.58 1010.19 1009.80 1009.43 1009.07 1008.73 1008.43 1008.19 1008.01 1007.89 1007.83 1007.82 1007.84 1007.88 1007.92 1007.96 1007.99 1008.02 1008.05 1008.11 1008.21 1008.34
1012.49 1013.30 1014.02 1014.58 1014.99 1015.25 1015.37 1015.39 1015.32 1015.19 1015.01 1014.78 1014.50 1014.17 1013.78 1013.36 1012.91 1012.45 1011.98 1011.51 1011.05 1010.59 1010.13 1009.66 1009.19 1008.72 1008.28 1007.87 1007.52 1007.25 1007.06 1006.96 1006.94 1006.98 1007.06 1007.16 1007.26 1007.36 1007.45 1007.53 1007.62 1007.72 1007.86
1011.94 1012.84 1013.64 1014.29 1014.78 1015.09 1015.26 1015.31 1015.28 1015.17 1015.02 1014.81 1014.55 1014.25 1013.89 1013.49 1013.06 1012.61 1012.14 1011.66 1011.17 1010.67 1010.16 1009.62 1009.06 1008.49 1007.93 1007.41 1006.95 1006.57 1006.30 1006.14 1006.08 1006.11 1006.21 1006.34 1006.50 1006.66 1006.81 1006.94 1007.07 1007.21 1007.35
1011.41 1012.39 1013.26 1013.98 1014.52 1014.89 1015.10 1015.19 1015.18 1015.10 1014.96 1014.77 1014.54 1014.25 1013.92 1013.55 1013.14 1012.71 1012.26 1011.80 1011.31 1010.79 1010.24 1009.65 1009.02 1008.37 1007.71 1007.08 1006.50 1006.01 1005.63 1005.38 1005.26 1005.25 1005.33 1005.48 1005.67 1005.88 1006.08 1006.27 1006.46 1006.63 1006.81
1010.88 1011.90 1012.83 1013.60 1014.19 1014.61 1014.86 1014.98 1015.00 1014.94 1014.82 1014.64 1014.42 1014.16 1013.85 1013.51 1013.13 1012.73 1012.31 1011.87 1011.41 1010.90 1010.34 1009.73 1009.05 1008.34 1007.60 1006.87 1006.18 1005.57 1005.08 1004.73 1004.51 1004.43 1004.47 1004.60 1004.80 1005.04 1005.28 1005.53 1005.77 1006.00 1006.23
1010.31 1011.35 1012.30 1013.10 1013.74 1014.19 1014.49 1014.65 1014.70 1014.66 1014.57 1014.41 1014.21 1013.96 1013.67 1013.35 1013.00 1012.64 1012.25 1011.85 1011.41 1010.93 1010.39 1009.78 1009.09 1008.34 1007.55 1006.75 1005.97 1005.26 1004.66 1004.19 1003.87 1003.70 1003.67 1003.76 1003.93 1004.17 1004.45 1004.74 1005.04 1005.34 1005.64
1009.68 1010.71 1011.67 1012.49 1013.15 1013.64 1013.98 1014.18 1014.28 1014.28 1014.21 1014.08 1013.89 1013.66 1013.39 1013.09 1012.76 1012.42 1012.07 1011.70 1011.30 1010.85 1010.34 1009.76 1009.08 1008.33 1007.52 1006.67 1005.83 1005.04 1004.35 1003.78 1003.35 1003.09 1002.97 1002.99 1003.12 1003.34 1003.63 1003.96 1004.31 1004.68 1005.05
1009.01 1010.01 1010.95 1011.77 1012.45 1012.97 1013.36 1013.61 1013.76 1013.81 1013.78 1013.68 1013.51 1013.29 1013.03 1012.74 1012.42 1012.10 1011.77 1011.42 1011.05 1010.64 1010.17 1009.62 1008.98 1008.25 1007.45 1006.59 1005.73 1004.90 1004.14 1003.49 1002.97 1002.61 1002.41 1002.35 1002.42 1002.61 1002.89 1003.23 1003.63 1004.05 1004.48
1008.33 1009.29 1010.19 1011.00 1011.68 1012.24 1012.67 1012.98 1013.19 1013.29 1013.31 1013.24 1013.10 1012.90 1012.64 1012.35 1012.03 1011.71 1011.38 1011.05 1010.69 1010.31 1009.87 1009.36 1008.76 1008.07 1007.31 1006.48 1005.63 1004.79 1004.00 1003.30 1002.73 1002.29 1002.00 1001.86 1001.87 1002.00 1002.25 1002.59 1003.01 1003.46 1003.95
1007.70 1008.60 1009.46 1010.25 1010.93 1011.51 1011.99 1012.35 1012.61 1012.78 1012.84 1012.81 1012.69 1012.50 1012.24 1011.94 1011.62 1011.28 1010.94 1010.60 1010.25 1009.88 1009.46 1008.98 1008.43 1007.80 1007.09 1006.31 1005.51 1004.70 1003.92 1003.21 1002.59 1002.10 1001.74 1001.53 1001.47 1001.54 1001.74 1002.05 1002.46 1002.92 1003.43
1007.18 1008.02 1008.83 1009.58 1010.26 1010.86 1011.36 1011.77 1012.08 1012.29 1012.40 1012.40 1012.30 1012.12 1011.86 1011.55 1011.21 1010.85 1010.49 1010.13 1009.76 1009.39 1008.98 1008.53 1008.02 1007.44 1006.79 1006.09 1005.35 1004.60 1003.86 1003.17 1002.55 1002.03 1001.62 1001.35 1001.21 1001.21 1001.35 1001.61 1001.97 1002.42 1002.93
1006.83 1007.60 1008.35 1009.07 1009.72 1010.32 1010.83 1011.27 1011.61 1011.85 1011.99 1012.02 1011.94 1011.76 1011.50 1011.18 1010.82 1010.43 1010.05 1009.66 1009.27 1008.88 1008.48 1008.04 1007.56 1007.04 1006.46 1005.83 1005.17 1004.49 1003.81 1003.17 1002.57 1002.04 1001.61 1001.28 1001.08 1001.00 1001.06 1001.25 1001.55 1001.96 1002.43
1006.65 1007.36 1008.05 1008.71 1009.33 1009.90 1010.41 1010.85 1011.20 1011.45 1011.60 1011.63 1011.56 1011.39 1011.13 1010.80 1010.43 1010.03 1009.62 1009.21 1008.81 1008.40 1007.99 1007.57 1007.11 1006.63 1006.11 1005.55 1004.97 1004.37 1003.77 1003.18 1002.62 1002.11 1001.66 1001.30 1001.04 1000.89 1000.87 1000.97 1001.20 1001.53 1001.96
1006.62 1007.26 1007.88 1008.49 1009.07 1009.60 1010.08 1010.50 1010.83 1011.06 1011.20 1011.22 1011.14 1010.97 1010.71 1010.39 1010.02 1009.62 1009.21 1008.79 1008.38 1007.97 1007.56 1007.14 1006.70 1006.25 1005.78 1005.29 1004.78 1004.26 1003.73 1003.21 1002.69 1002.21 1001.76 1001.37 1001.06 1000.85 1000.75 1000.78 1000.92 1001.18 1001.54
1006.66 1007.24 1007.81 1008.36 1008.89 1009.37 1009.80 1010.17 1010.46 1010.65 1010.75 1010.75 1010.66 1010.48 1010.22 1009.91 1009.56 1009.18 1008.78 1008.38 1007.98 1007.58 1007.18 1006.77 1006.36 1005.93 1005.50 1005.06 1004.62 1004.16 1003.70 1003.23 1002.77 1002.31 1001.88 1001.48 1001.14 1000.88 1000.72 1000.67 1000.74 1000.92 1001.21
1006.70 1007.24 1007.76 1008.27 1008.74 1009.17 1009.54 1009.85 1010.07 1010.21 1010.26 1010.22 1010.10 1009.91 1009.66 1009.37 1009.04 1008.70 1008.35 1007.98 1007.61 1007.24 1006.86 1006.47 1006.08 1005.69 1005.29 1004.88 1004.48 1004.07 1003.66 1003.25 1002.83 1002.41 1002.00 1001.61 1001.27 1000.98 1000.77 1000.67 1000.68 1000.79 1001.02
1006.69 1007.20 1007.69 1008.16 1008.59 1008.96 1009.27 1009.51 1009.67 1009.74 1009.73 1009.64 1009.48 1009.28 1009.04 1008.77 1008.48 1008.19 1007.89 1007.58 1007.26 1006.93 1006.59 1006.23 1005.87 1005.49 1005.12 1004.74 1004.37 1004.00 1003.63 1003.26 1002.88 1002.50 1002.12 1001.75 1001.41 1001.12 1000.90 1000.77 1000.73 1000.80 1000.97
1006.59 1007.09 1007.58 1008.02 1008.42 1008.75 1009.01 1009.19 1009.27 1009.27 1009.19 1009.05 1008.86 1008.63 1008.40 1008.15 1007.91 1007.67 1007.43 1007.18 1006.92 1006.65 1006.35 1006.03 1005.69 1005.34 1004.98 1004.62 1004.27 1003.93 1003.58 1003.24 1002.90 1002.56 1002.22 1001.88 1001.57 1001.30 1001.08 1000.94 1000.89 1000.93 1001.06
1006.43 1006.95 1007.43 1007.88 1008.26 1008.56 1008.77 1008.89 1008.91 1008.84 1008.70 1008.50 1008.27 1008.03 1007.79 1007.56 1007.35 1007.16 1006.98 1006.79 1006.59 1006.37 1006.11 1005.83 1005.52 1005.19 1004.85 1004.50 1004.16 1003.83 1003.50 1003.19 1002.88 1002.57 1002.27 1001.98 1001.71 1001.47 1001.29 1001.16 1001.11 1001.13 1001.23
1006.26 1006.80 1007.30 1007.75 1008.12 1008.40 1008.58 1008.65 1008.62 1008.49 1008.30 1008.05 1007.78 1007.52 1007.27 1007.05 1006.86 1006.70 1006.56 1006.42 1006.26 1006.08 1005.87 1005.61 1005.33 1005.01 1004.68 1004.34 1004.01 1003.69 1003.38 1003.08 1002.80 1002.53 1002.27 1002.03 1001.81 1001.62 1001.47 1001.37 1001.34 1001.36 1001.44
1006.15 1006.71 1007.23 1007.68 1008.05 1008.31 1008.46 1008.49 1008.41 1008.24 1008.00 1007.71 1007.41 1007.12 1006.86 1006.64 1006.46 1006.31 1006.18 1006.07 1005.94 1005.78 1005.59 1005.36 1005.09 1004.78 1004.46 1004.13 1003.80 1003.48 1003.18 1002.91 1002.65 1002.41 1002.20 1002.00 1001.84 1001.70 1001.59 1001.53 1001.51 1001.54 1001.61
Thickness
5553 5553 5555 5556 5557 5559 5560 5562 5565 5566 5568 5571 5574 5577 5580 5582 5584 5587 5588 5589 5590 5591 5592 5593 5594 5594 5596 5599 5600 5601 5602 5601 5601 5602 5604 5606 5607 5610 5613 5613 5614 5614 5614
5545 5545 5545 5546 5548 5550 5551 5553 5555 5557 5559 5562 5565 5569 5571 5573 5575 5577 5579 5580 5580 5581 5583 5584 5585 5586 5588 5590 5591 5592 5593 5593 5593 5595 5596 5599 5601 5604 5605 5606 5606 5607 5606
5536 5537 5537 5537 5538 5540 5541 5543 5545 5547 5550 5552 5555 5558 5561 5564 5566 5568 5570 5570 5570 5572 5573 5575 5576 5577 5579 5581 5581 5583 5585 5586 5585 5587 5589 5592 5599 5598 5598 5598 5599 5599 5599
5526 5528 5529 5529 5530 5530 5531 5533 5535 5537 5540 5543 5546 5550 5553 5555 5556 5558 5561 5561 5561 5562 5563 5564 5566 5568 5569 5570 5572 5573 5576 5578 5579 5579 5580 5583 5586 5587 5591 5592 5592 5592 5592
5517 5519 5519 5520 5520 5520 5521 5523 5525 5528 5531 5534 5536 5539 5542 5543 5544 5546 5549 5550 5551 5552 5553 5554 5556 5557 5559 5561 5562 5564 5567 5569 5571 5573 5573 5574 5575 5579 5581 5585 5586 5586 5586
5510 5510 5510 5510 5509 5510 5511 5512 5515 5518 5521 5524 5526 5528 5530 5532 5534 5536 5538 5539 5540 5541 5543 5543 5546 5548 5550 5552 5554 5555 5558 5561 5563 5564 5566 5568 5570 5573 5575 5578 5578 5579 5580
5503 5502 5502 5501 5501 5501 5502 5503 5506 5509 5511 5513 5515 5516 5519 5521 5524 5526 5527 5528 5530 5531 5533 5534 5536 5539 5541 5543 5545 5546 5549 5552 5554 5556 5558 5560 5563 5565 5566 5567 5568 5568 5569
5495 5493 5492 5492 5492 5493 5493 5495 5497 5499 5501 5503 5505 5506 5508 5510 5513 5515 5517 5519 5520 5522 5523 5525 5528 5531 5533 5535 5536 5538 5540 5543 5546 5548 5549 5551 5552 5554 5557 5558 5559 5559 5561
5486 5484 5483 5482 5483 5484 5484 5485 5487 5489 5491 5493 5495 5496 5498 5500 5503 5505 5506 5508 5510 5510 5512 5515 5519 5522 5524 5526 5528 5530 5532 5534 5537 5540 5540 5541 5543 5544 5547 5548 5550 5551 5553
5477 5476 5474 5472 5473 5473 5473 5474 5475 5477 5480 5482 5484 5486 5489 5491 5492 5495 5497 5498 5499 5501 5503 5506 5509 5512 5515 5517 5520 5522 5524 5526 5529 5531 5533 5533 5534 5535 5537 5539 5540 5542 5545
5467 5466 5465 5465 5465 5464 5464 5464 5465 5467 5470 5472 5474 5476 5478 5480 5482 5485 5487 5489 5490 5492 5494 5496 5499 5502 5505 5508 5511 5514 5516 5518 5520 5522 5524 5526 5526 5527 5529 5530 5531 5533 5535
5457 5457 5456 5456 5456 5456 5456 5455 5456 5458 5460 5462 5463 5466 5469 5471 5473 5475 5477 5479 5481 5483 5484 5486 5489 5492 5495 5498 5502 5504 5507 5510 5512 5513 5515 5516 5517 5518 5520 5522 5524 5526 5527
5449 5449 5448 5447 5447 5447 5447 5447 5447 5448 5450 5452 5454 5456 5459 5461 5463 5465 5467 5469 5472 5474 5476 5478 5480 5482 5485 5489 5492 5495 5497 5501 5502 5504 5506 5507 5508 5511 5512 5514 5516 5517 5519
5442 5441 5440 5439 5437 5437 5437 5437 5438 5439 5441 5443 5445 5448 5450 5452 5453 5455 5457 5460 5463 5465 5467 5469 5471 5473 5476 5479 5482 5485 5488 5491 5493 5495 5497 5498 5500 5502 5504 5506 5508 5509 5510
5435 5432 5431 5431 5429 5428 5427 5427 5429 5430 5432 5434 5437 5439 5440 5442 5444 5446 5448 5451 5453 5456 5458 5460 5462 5464 5467 5470 5473 5476 5480 5483 5485 5486 5488 5489 5491 5493 5495 5498 5500 5500 5502
5426 5424 5422 5421 5420 5419 5418 5419 5419 5421 5423 5425 5427 5429 5431 5433 5435 5437 5439 5442 5444 5447 5449 5451 5454 5456 5459 5461 5464 5467 5470 5474 5477 5478 5479 5481 5483 5485 5487 5489 5491 5492 5495
5418 5416 5414 5411 5410 5410 5410 5410 5411 5413 5414 5416 5418 5420 5422 5424 5426 5428 5431 5433 5435 5438 5440 5442 5445 5447 5450 5452 5455 5457 5461 5465 5468 5470 5472 5474 5475 5477 5479 5480 5481 5483 5485
5411 5408 5405 5403 5402 5401 5402 5403 5404 5405 5406 5407 5409 5411 5413 5416 5418 5420 5422 5424 5427 5429 5431 5434 5436 5438 5441 5444 5447 5449 5453 5457 5460 5462 5464 5465 5468 5470 5471 5472 5474 5476 5478
5402 5400 5397 5394 5393 5393 5394 5395 5397 5398 5399 5400 5402 5403 5405 5408 5410 5412 5414 5416 5418 5421 5423 5425 5428 5431 5434 5436 5439 5442 5446 5449 5452 5454 5456 5459 5462 5464 5464 5465 5467 5469 5470
5394 5391 5389 5387 5387 5387 5387 5389 5390 5391 5392 5393 5394 5396 5398 5400 5402 5404 5406 5408 5411 5413 5416 5418 5421 5424 5427 5429 5431 5434 5438 5442 5444 5447 5449 5452 5454 5457 5458 5459 5461 5462 5462
5386 5384 5382 5381 5380 5381 5381 5382 5384 5384 5385 5385 5386 5388 5391 5393 5395 5397 5399 5401 5403 5406 5409 5411 5414 5416 5418 5420 5423 5426 5430 5433 5436 5439 5442 5444 5446 5449 5451 5452 5453 5454 5453
5379 5377 5376 5375 5374 5374 5375 5376 5377 5377 5378 5379 5381 5383 5384 5386 5388 5390 5392 5394 5396 5399 5401 5404 5406 5408 5410 5412 5414 5417 5420 5424 5427 5431 5434 5437 5439 5441 5442 5443 5444 5444 5445
5372 5370 5370 5370 5369 5369 5369 5370 5370 5371 5372 5373 5375 5377 5378 5380 5381 5383 5385 5386 5388 5391 5393 5395 5398 5399 5402 5404 5407 5409 5412 5416 5419 5423 5426 5429 5431 5432 5434 5435 5436 5436 5437
5365 5363 5363 5364 5364 5363 5363 5363 5364 5365 5366 5368 5369 5370 5372 5373 5374 5375 5376 5378 5380 5382 5384 5387 5389 5391 5393 5396 5399 5401 5404 5408 5411 5415 5418 5420 5422 5424 5426 5427 5428 5430 5431
5359 5357 5357 5358 5358 5358 5357 5358 5358 5359 5360 5361 5362 5364 5364 5365 5366 5366 5367 5368 5370 5372 5374 5377 5380 5383 5385 5387 5389 5392 5396 5400 5402 5405 5408 5411 5413 5416 5418 5419 5421 5422 5423
5353 5353 5352 5352 5352 5352 5352 5352 5352 5353 5354 5355 5356 5357 5358 5358 5359 5359 5360 5360 5362 5364 5366 5368 5371 5374 5377 5379 5382 5385 5388 5392 5394 5397 5401 5403 5406 5408 5410 5411 5413 5415 5415